Ellensburg, WA

1:54 AM PDT on September 24, 2017 (GMT -0700)
Bowers

Weather History for KELN - January, 2012

Change the Weather History Date:

Friday, January 20, 2012

  Actual Average (KYKM) Record (KYKM)
Temperature  
Mean Temperature 20 °F -  
Max Temperature 24 °F 38 °F 58 °F (1972)
Min Temperature 17 °F 25 °F -19 °F (1954)
Degree Days  
Heating Degree Days 44    
Moisture  
Dew Point 15 °F    
Average Humidity 80    
Maximum Humidity 86    
Minimum Humidity 73    
Precipitation  
Precipitation 0.00 in - - ()
Sea Level Pressure  
Sea Level Pressure 29.65 in    
Wind  
Wind Speed 2 mph (East)    
Max Wind Speed 6 mph    
Max Gust Speed -    
Visibility 5 miles    
Events Snow    
Averages and records for this station are not official NWS values.
T = Trace of Precipitation, MM = Missing Value Source: NWS Daily Summary

Daily Weather History Graph

Daily Weather History Graph

Search for Another Location

Airport or City:

Trip Planner

Search our weather history database for the weather conditions in past years. The results will help you decide how hot, cold, wet, or windy it might be!

Date:

Astronomy

Jan. 20, 2012 Rise Set
Actual Time 7:40 AM PST 4:46 PM PST
Civil Twilight 7:06 AM PST 5:20 PM PST
Nautical Twilight 6:28 AM PST 5:57 PM PST
Astronomical Twilight 5:52 AM PST 6:33 PM PST
Moon 5:27 AM PST (1/20) 2:19 PM PST (1/20)
Length of Visible Light 10h 13m
Length of Day
9h 06m
Waning Crescent, 7% of the Moon is Illuminated
Jan 20
Waning Crescent
Jan 22
New
Jan 30
First Quarter
Feb 7
Full
Feb 14
Last Quarter

Hourly Weather History & Observations

Time (PST) Temp. Windchill Dew Point Humidity Pressure Visibility Wind Dir Wind Speed Gust Speed Precip Events Conditions
12:21 AM 19.4 °F - 14.0 °F 80% 29.79 in 10.0 mi Calm Calm - N/A   Overcast
12:53 AM 19.0 °F - 14.0 °F 81% 29.87 in 10.0 mi Calm Calm - N/A   Overcast
1:03 AM 19.4 °F - 14.0 °F 80% 29.80 in 10.0 mi Calm Calm - N/A   Overcast
1:17 AM 19.4 °F 14.3 °F 12.2 °F 74% 29.80 in 10.0 mi SSE 3.5 mph - N/A   Overcast
1:40 AM 19.4 °F - 14.0 °F 80% 29.80 in 9.0 mi Calm Calm - N/A   Overcast
1:53 AM 19.0 °F - 14.0 °F 81% 29.88 in 9.0 mi Calm Calm - N/A   Overcast
2:01 AM 19.4 °F 14.3 °F 12.2 °F 74% 29.81 in 10.0 mi East 3.5 mph - N/A   Overcast
2:53 AM 18.0 °F - 12.0 °F 78% 29.90 in 10.0 mi Calm Calm - N/A   Overcast
3:53 AM 19.0 °F 12.3 °F 14.0 °F 81% 29.89 in 7.0 mi East 4.6 mph - N/A   Overcast
4:18 AM 17.6 °F - 12.2 °F 79% 29.81 in 9.0 mi Calm Calm - 0.00 in   Overcast
4:53 AM 18.0 °F - 12.9 °F 81% 29.90 in 10.0 mi Calm Calm - 0.00 in   Overcast
5:53 AM 17.1 °F 11.7 °F 10.9 °F 77% 29.90 in 10.0 mi South 3.5 mph - N/A   Overcast
6:53 AM 17.1 °F 10.0 °F 10.9 °F 77% 29.91 in 10.0 mi ESE 4.6 mph - N/A   Overcast
7:53 AM 18.0 °F 11.1 °F 12.0 °F 78% 29.89 in 10.0 mi ENE 4.6 mph - N/A   Overcast
8:19 AM 17.6 °F - 10.4 °F 73% 29.82 in 10.0 mi Calm Calm - N/A   Overcast
8:48 AM 19.4 °F - 12.2 °F 74% 29.81 in 10.0 mi Calm Calm - N/A   Overcast
9:30 AM 19.4 °F 12.8 °F 15.8 °F 86% 29.81 in 1.8 mi East 4.6 mph - N/A   Haze
9:51 AM 19.4 °F 12.8 °F 15.8 °F 86% 29.80 in 1.2 mi SE 4.6 mph - N/A   Overcast
9:53 AM 19.0 °F 13.9 °F 15.1 °F 85% 29.88 in 1.0 mi ESE 3.5 mph - N/A   Overcast
10:19 AM 19.4 °F 12.8 °F 15.8 °F 86% 29.79 in 1.5 mi East 4.6 mph - N/A   Haze
10:30 AM 21.2 °F 16.4 °F 15.8 °F 80% 29.79 in 2.5 mi East 3.5 mph - N/A   Haze
10:34 AM 21.2 °F - 15.8 °F 80% 29.79 in 3.0 mi Calm Calm - N/A   Haze
10:53 AM 21.0 °F 14.6 °F 16.0 °F 81% 29.86 in 7.0 mi East 4.6 mph - N/A   Overcast
11:20 AM 19.4 °F - 15.8 °F 86% 29.77 in 3.0 mi Calm Calm - N/A   Overcast
11:53 AM 21.0 °F - 15.1 °F 78% 29.82 in 10.0 mi Calm Calm - N/A   Overcast
12:53 PM 21.9 °F 17.2 °F 15.1 °F 75% 29.75 in 8.0 mi South 3.5 mph - 0.00 in   Overcast
1:19 PM 21.2 °F 14.9 °F 15.8 °F 80% 29.67 in 5.0 mi West 4.6 mph - N/A   Haze
1:53 PM 21.9 °F - 16.0 °F 78% 29.72 in 6.0 mi Calm Calm - N/A   Haze
2:35 PM 23.0 °F - 15.8 °F 74% 29.62 in 2.0 mi Calm Calm - 0.00 in Snow Light Snow
2:42 PM 23.0 °F - 15.8 °F 74% 29.62 in 1.5 mi Calm Calm - 0.00 in Snow Light Snow
2:53 PM 21.9 °F - 15.1 °F 75% 29.68 in 1.2 mi Calm Calm - 0.00 in Snow Light Snow
3:33 PM 21.2 °F - 15.8 °F 80% 29.58 in 3.0 mi Calm Calm - 0.00 in Snow Light Snow
3:46 PM 21.2 °F - 15.8 °F 80% 29.58 in 1.8 mi Calm Calm - 0.00 in Snow Light Snow
3:53 PM 21.9 °F - 16.0 °F 78% 29.64 in 1.0 mi Calm Calm - 0.00 in Snow Light Snow
4:00 PM 21.2 °F - 15.8 °F 80% 29.56 in 0.8 mi Calm Calm - 0.00 in Snow Light Snow
4:50 PM 21.2 °F 16.4 °F 15.8 °F 80% 29.53 in 1.2 mi ENE 3.5 mph - 0.00 in Snow Light Snow
4:53 PM 21.9 °F - 16.0 °F 78% 29.60 in 1.5 mi Calm Calm - 0.00 in Snow Light Snow
5:09 PM 21.2 °F 16.4 °F 17.6 °F 86% 29.52 in 1.0 mi East 3.5 mph - 0.00 in Snow Light Snow
5:40 PM 23.0 °F 17.0 °F 17.6 °F 80% 29.49 in 1.8 mi ESE 4.6 mph - 0.00 in Snow Light Snow
5:48 PM 23.0 °F 18.4 °F 17.6 °F 80% 29.48 in 2.0 mi East 3.5 mph - 0.00 in Snow Light Snow
5:53 PM 23.0 °F 18.4 °F 17.1 °F 78% 29.55 in 3.0 mi ESE 3.5 mph - 0.00 in Snow Light Snow
6:53 PM 23.0 °F - 17.1 °F 78% 29.50 in 9.0 mi Calm Calm - 0.00 in   Overcast
7:53 PM 21.9 °F - 17.1 °F 82% 29.43 in 6.0 mi Calm Calm - 0.00 in Snow Light Snow
8:02 PM 21.2 °F - 17.6 °F 86% 29.36 in 1.8 mi Calm Calm - 0.00 in Snow Light Snow
8:13 PM 21.2 °F - 17.6 °F 86% 29.35 in 3.0 mi Calm Calm - 0.00 in Snow Light Snow
8:41 PM 23.0 °F - 17.6 °F 80% 29.35 in 2.5 mi Calm Calm - 0.00 in   Haze
8:49 PM 23.0 °F - 17.6 °F 80% 29.34 in 3.0 mi Calm Calm - 0.00 in   Haze
8:53 PM 23.0 °F - 18.0 °F 81% 29.40 in 3.0 mi Calm Calm - 0.00 in Snow Light Snow
9:01 PM 23.0 °F 18.4 °F 17.6 °F 80% 29.33 in 2.5 mi ENE 3.5 mph - 0.00 in Snow Light Snow
9:14 PM 23.0 °F 18.4 °F 17.6 °F 80% 29.32 in 4.0 mi ENE 3.5 mph - 0.00 in   Haze
9:29 PM 24.8 °F 20.5 °F 17.6 °F 74% 29.32 in 2.5 mi NE 3.5 mph - 0.00 in Snow Light Snow
9:39 PM 24.8 °F 20.5 °F 17.6 °F 74% 29.31 in 4.0 mi NE 3.5 mph - 0.00 in   Haze
9:53 PM 24.1 °F 19.7 °F 19.0 °F 81% 29.38 in 6.0 mi SW 3.5 mph - 0.00 in   Haze
10:14 PM 21.2 °F 13.6 °F 17.6 °F 86% 29.30 in 6.0 mi West 5.8 mph - 0.00 in   Overcast